LDA5VP LIEE-LOWW

Flight info

Callsign LDA5VP
Flight time 1h 38m
Altitude 34000
Route KOVAS Q125 LABOM DCT TAQ DCT TIMOV DCT BAXON DCT LAPNA LAPNA2W
Aircraft A320/M-SDE3FGHIRWY/LB1

Departure

Time 2026-05-06 15:52
Airport Cagliari Elmas Airport (LIEE)

Arrival

Time 2026-05-06 17:31
Airport Vienna International Airport (LOWW)
Time Latitude Longitude Altitude Speed Heading
2026-05-06 15:05 39.25265 9.05978 15 ft 0 kts 322°
2026-05-06 15:43 39.25262 9.05981 15 ft 3 kts 321°
2026-05-06 15:43 39.25241 9.06005 15 ft 4 kts 311°
2026-05-06 15:44 39.25226 9.06032 15 ft 4 kts 288°
2026-05-06 15:44 39.25226 9.06060 15 ft 2 kts 233°
2026-05-06 15:44 39.25229 9.06067 15 ft 0 kts 232°
2026-05-06 15:47 39.25229 9.06066 15 ft 1 kts 232°
2026-05-06 15:47 39.25224 9.06057 15 ft 3 kts 232°
2026-05-06 15:47 39.25197 9.06014 16 ft 9 kts 232°
2026-05-06 15:47 39.25155 9.05943 15 ft 11 kts 232°
2026-05-06 15:48 39.25153 9.05849 15 ft 11 kts 264°
2026-05-06 15:48 39.25105 9.05769 15 ft 12 kts 194°
2026-05-06 15:48 39.25036 9.05832 15 ft 13 kts 138°
2026-05-06 15:48 39.24963 9.05917 15 ft 15 kts 138°
2026-05-06 15:49 39.24879 9.06013 16 ft 17 kts 138°
2026-05-06 15:49 39.24784 9.06124 17 ft 20 kts 138°
2026-05-06 15:49 39.24677 9.06247 16 ft 22 kts 138°
2026-05-06 15:49 39.24560 9.06383 15 ft 24 kts 138°
2026-05-06 15:50 39.24450 9.06511 15 ft 16 kts 138°
2026-05-06 15:50 39.24371 9.06578 15 ft 14 kts 174°
2026-05-06 15:50 39.24279 9.06540 17 ft 13 kts 201°
2026-05-06 15:50 39.24258 9.06456 19 ft 13 kts 320°
2026-05-06 15:51 39.24281 9.06432 16 ft 0 kts 317°
2026-05-06 15:51 39.24283 9.06430 16 ft 7 kts 317°
2026-05-06 15:51 39.24512 9.06164 14 ft 79 kts 318°
2026-05-06 15:52 39.25067 9.05524 16 ft 133 kts 318°
2026-05-06 15:52 39.25861 9.04612 129 ft 161 kts 319°
2026-05-06 15:52 39.26685 9.03680 757 ft 158 kts 319°
2026-05-06 15:52 39.27630 9.02951 1261 ft 164 kts 353°
2026-05-06 15:53 39.28766 9.03031 1796 ft 167 kts
2026-05-06 15:53 39.30001 9.03198 2071 ft 188 kts
2026-05-06 15:53 39.31369 9.03354 2381 ft 208 kts
2026-05-06 15:53 39.32877 9.03504 2846 ft 222 kts
2026-05-06 15:54 39.34416 9.03646 3632 ft 223 kts
2026-05-06 15:54 39.35962 9.03787 4416 ft 224 kts
2026-05-06 15:54 39.37518 9.03926 5209 ft 225 kts
2026-05-06 15:54 39.39086 9.04067 5979 ft 227 kts
2026-05-06 15:55 39.40675 9.04212 6689 ft 231 kts
2026-05-06 15:55 39.42303 9.04363 7329 ft 237 kts
2026-05-06 15:55 39.43974 9.04513 7927 ft 245 kts
2026-05-06 15:55 39.45704 9.04667 8518 ft 252 kts
2026-05-06 15:56 39.47512 9.04853 8889 ft 272 kts
2026-05-06 15:56 39.49474 9.05094 9171 ft 295 kts
2026-05-06 15:56 39.51567 9.05366 9691 ft 307 kts
2026-05-06 15:56 39.53722 9.05650 10277 ft 317 kts
2026-05-06 15:57 39.56001 9.05949 10471 ft 340 kts
2026-05-06 15:57 39.58437 9.06264 10638 ft 363 kts
2026-05-06 15:57 39.60989 9.06588 11124 ft 372 kts
2026-05-06 15:57 39.63584 9.06921 11770 ft 377 kts
2026-05-06 15:58 39.66208 9.07588 12397 ft 383 kts 13°
2026-05-06 15:58 39.68804 9.08457 13010 ft 387 kts 13°
2026-05-06 15:58 39.71424 9.09339 13638 ft 391 kts 13°
2026-05-06 15:58 39.74070 9.10231 14234 ft 395 kts 13°
2026-05-06 15:59 39.76741 9.11132 14815 ft 398 kts 12°
2026-05-06 15:59 39.79434 9.12041 15419 ft 401 kts 12°
2026-05-06 15:59 39.82140 9.12956 15986 ft 404 kts 12°
2026-05-06 15:59 39.84874 9.13878 16543 ft 407 kts 12°
2026-05-06 16:00 39.87581 9.15052 17100 ft 412 kts 19°
2026-05-06 16:00 39.90273 9.16392 17653 ft 416 kts 19°
2026-05-06 16:00 39.92986 9.17742 18180 ft 420 kts 19°
2026-05-06 16:00 39.95724 9.19106 18757 ft 422 kts 19°
2026-05-06 16:01 39.98477 9.20477 19310 ft 426 kts 18°
2026-05-06 16:01 40.01262 9.21866 19843 ft 431 kts 19°
2026-05-06 16:01 40.04073 9.23270 20374 ft 434 kts 19°
2026-05-06 16:01 40.06908 9.24690 20819 ft 439 kts 19°
2026-05-06 16:02 40.09773 9.26128 21304 ft 443 kts 18°
2026-05-06 16:02 40.12656 9.27574 21730 ft 447 kts 18°
2026-05-06 16:02 40.15571 9.29028 22168 ft 450 kts 18°
2026-05-06 16:02 40.18508 9.30495 22584 ft 454 kts 18°
2026-05-06 16:03 40.21469 9.31982 22993 ft 458 kts 18°
2026-05-06 16:03 40.24451 9.33488 23360 ft 461 kts 18°
2026-05-06 16:03 40.27459 9.35008 23735 ft 465 kts 18°
2026-05-06 16:03 40.30485 9.36537 24118 ft 468 kts 18°
2026-05-06 16:04 40.33526 9.38072 24485 ft 471 kts 18°
2026-05-06 16:04 40.36543 9.39791 24827 ft 476 kts 26°
2026-05-06 16:04 40.39368 9.42094 25172 ft 480 kts 36°
2026-05-06 16:04 40.41919 9.44939 25505 ft 484 kts 43°
2026-05-06 16:05 40.44385 9.47973 25844 ft 487 kts 43°
2026-05-06 16:05 40.46865 9.51016 26203 ft 489 kts 43°
2026-05-06 16:05 40.49360 9.54068 26545 ft 491 kts 42°
2026-05-06 16:05 40.51868 9.57135 26880 ft 494 kts 43°
2026-05-06 16:06 40.54419 9.60256 27191 ft 496 kts 43°
2026-05-06 16:06 40.56950 9.63362 27506 ft 498 kts 43°
2026-05-06 16:06 40.59486 9.66487 27807 ft 500 kts 43°
2026-05-06 16:06 40.62028 9.69621 28101 ft 503 kts 43°
2026-05-06 16:07 40.64585 9.72770 28413 ft 504 kts 43°
2026-05-06 16:07 40.67146 9.75928 28821 ft 503 kts 43°
2026-05-06 16:07 40.69692 9.79073 29229 ft 502 kts 43°
2026-05-06 16:07 40.72239 9.82224 29624 ft 501 kts 43°
2026-05-06 16:08 40.74779 9.85375 30031 ft 501 kts 43°
2026-05-06 16:08 40.77317 9.88523 30416 ft 500 kts 43°
2026-05-06 16:08 40.79853 9.91673 30792 ft 500 kts 43°
2026-05-06 16:08 40.82388 9.94823 31181 ft 500 kts 42°
2026-05-06 16:09 40.84918 9.97965 31539 ft 500 kts 42°
2026-05-06 16:09 40.87454 10.01116 31893 ft 500 kts 43°
2026-05-06 16:09 40.89986 10.04271 32269 ft 500 kts 42°
2026-05-06 16:09 40.92514 10.07426 32632 ft 499 kts 42°
2026-05-06 16:10 40.95039 10.10582 32975 ft 499 kts 42°
2026-05-06 16:10 40.97564 10.13738 33318 ft 499 kts 42°
2026-05-06 16:10 41.00089 10.16897 33654 ft 499 kts 42°
2026-05-06 16:10 41.02612 10.20065 33905 ft 500 kts 42°
2026-05-06 16:11 41.07723 10.26487 33936 ft 511 kts 42°
2026-05-06 16:11 41.12887 10.32987 33948 ft 513 kts 42°
2026-05-06 16:12 41.18061 10.39516 33935 ft 513 kts 42°
2026-05-06 16:12 41.23235 10.46050 33953 ft 513 kts 42°
2026-05-06 16:13 41.28435 10.52632 33949 ft 513 kts 42°
2026-05-06 16:13 41.33569 10.59158 33944 ft 514 kts 42°
2026-05-06 16:14 41.37900 10.64673 33951 ft 514 kts 42°
2026-05-06 16:14 41.43060 10.71260 33952 ft 514 kts 43°
2026-05-06 16:15 41.48215 10.77857 33960 ft 513 kts 42°
2026-05-06 16:15 41.53366 10.84452 33956 ft 513 kts 43°
2026-05-06 16:16 41.58506 10.91049 33959 ft 512 kts 43°
2026-05-06 16:16 41.63634 10.97658 33971 ft 512 kts 43°
2026-05-06 16:17 41.68748 11.04261 33974 ft 511 kts 43°
2026-05-06 16:17 41.73867 11.10874 33987 ft 511 kts 43°
2026-05-06 16:18 41.78974 11.17492 33993 ft 511 kts 43°
2026-05-06 16:18 41.84071 11.24117 34005 ft 510 kts 43°
2026-05-06 16:19 41.89195 11.30793 34011 ft 510 kts 43°
2026-05-06 16:19 41.94276 11.37419 34012 ft 509 kts 43°
2026-05-06 16:20 41.99345 11.44060 34008 ft 508 kts 43°
2026-05-06 16:20 42.04402 11.50704 34006 ft 508 kts 43°
2026-05-06 16:21 42.09457 11.57343 34011 ft 507 kts 43°
2026-05-06 16:21 42.14502 11.63978 34007 ft 507 kts 43°
2026-05-06 16:22 42.19581 11.70559 34008 ft 505 kts 38°
2026-05-06 16:22 42.25462 11.75618 34008 ft 499 kts 21°
2026-05-06 16:23 42.31806 11.79398 34006 ft 498 kts 20°
2026-05-06 16:23 42.38143 11.83184 34007 ft 498 kts 20°
2026-05-06 16:24 42.44483 11.86978 34004 ft 498 kts 20°
2026-05-06 16:24 42.50751 11.90986 34004 ft 501 kts 27°
2026-05-06 16:25 42.56786 11.95723 33996 ft 502 kts 27°
2026-05-06 16:25 42.62827 12.00480 34001 ft 502 kts 27°
2026-05-06 16:26 42.68874 12.05263 34004 ft 503 kts 27°
2026-05-06 16:26 42.71895 12.07654 34256 ft 503 kts 27°
2026-05-06 16:26 42.74922 12.10047 34594 ft 502 kts 27°
2026-05-06 16:27 42.77973 12.12460 34948 ft 501 kts 27°
2026-05-06 16:27 42.80985 12.14845 35281 ft 500 kts 27°
2026-05-06 16:27 42.83947 12.17196 35569 ft 499 kts 27°
2026-05-06 16:27 42.86979 12.19605 35855 ft 498 kts 27°
2026-05-06 16:28 42.89976 12.21988 35972 ft 498 kts 27°
2026-05-06 16:28 42.92970 12.24372 35978 ft 498 kts 27°
2026-05-06 16:28 42.98941 12.29131 35979 ft 497 kts 27°
2026-05-06 16:29 43.04923 12.33901 35982 ft 498 kts 27°
2026-05-06 16:29 43.10903 12.38687 35969 ft 498 kts 27°
2026-05-06 16:30 43.15863 12.42683 35971 ft 498 kts 28°
2026-05-06 16:30 43.22851 12.48312 35974 ft 499 kts 27°
2026-05-06 16:31 43.28829 12.53122 35971 ft 499 kts 27°
2026-05-06 16:31 43.34805 12.57956 35974 ft 499 kts 27°
2026-05-06 16:32 43.40785 12.62805 35974 ft 499 kts 28°
2026-05-06 16:32 43.46768 12.67667 35970 ft 500 kts 27°
2026-05-06 16:33 43.52751 12.72539 35961 ft 499 kts 27°
2026-05-06 16:34 43.61714 12.79861 35947 ft 499 kts 28°
2026-05-06 16:34 43.67692 12.84762 35935 ft 500 kts 27°
2026-05-06 16:35 43.73671 12.89672 35927 ft 500 kts 28°
2026-05-06 16:35 43.79685 12.94624 35922 ft 500 kts 27°
2026-05-06 16:36 43.85657 12.99551 35923 ft 500 kts 27°
2026-05-06 16:36 43.91626 13.04496 35920 ft 500 kts 28°
2026-05-06 16:37 43.97600 13.09445 35914 ft 500 kts 27°
2026-05-06 16:37 44.03580 13.14398 35915 ft 500 kts 28°
2026-05-06 16:38 44.09558 13.19367 35914 ft 501 kts 28°
2026-05-06 16:38 44.15523 13.24352 35918 ft 500 kts 28°
2026-05-06 16:39 44.21494 13.29348 35918 ft 501 kts 28°
2026-05-06 16:39 44.27468 13.34351 35917 ft 501 kts 28°
2026-05-06 16:40 44.33435 13.39372 35919 ft 501 kts 28°
2026-05-06 16:40 44.39434 13.44432 35929 ft 501 kts 28°
2026-05-06 16:41 44.45356 13.49570 35935 ft 501 kts 30°
2026-05-06 16:41 44.51156 13.54999 35941 ft 501 kts 31°
2026-05-06 16:42 44.56926 13.60501 35947 ft 501 kts 31°
2026-05-06 16:42 44.62708 13.65945 35951 ft 500 kts 31°
2026-05-06 16:43 44.68509 13.71352 35952 ft 500 kts 31°
2026-05-06 16:43 44.74296 13.76765 35955 ft 499 kts 31°
2026-05-06 16:44 44.80070 13.82204 35952 ft 500 kts 31°
2026-05-06 16:44 44.85833 13.87670 35957 ft 500 kts 31°
2026-05-06 16:45 44.91621 13.93140 35952 ft 500 kts 31°
2026-05-06 16:45 44.97401 13.98606 35961 ft 499 kts 32°
2026-05-06 16:46 45.03161 14.04083 35967 ft 498 kts 32°
2026-05-06 16:46 45.08891 14.09549 35972 ft 496 kts 32°
2026-05-06 16:47 45.14606 14.15010 35969 ft 495 kts 32°
2026-05-06 16:47 45.20308 14.20465 35968 ft 494 kts 32°
2026-05-06 16:48 45.25072 14.25032 35967 ft 493 kts 32°
2026-05-06 16:48 45.30748 14.30499 35962 ft 492 kts 32°
2026-05-06 16:49 45.36411 14.35961 35963 ft 492 kts 32°
2026-05-06 16:49 45.42070 14.41421 35960 ft 491 kts 32°
2026-05-06 16:50 45.47717 14.46890 35957 ft 491 kts 32°
2026-05-06 16:50 45.53358 14.52376 35956 ft 490 kts 33°
2026-05-06 16:51 45.58988 14.57871 35955 ft 490 kts 33°
2026-05-06 16:51 45.64618 14.63363 35951 ft 490 kts 32°
2026-05-06 16:52 45.70243 14.68854 35951 ft 490 kts 33°
2026-05-06 16:52 45.75896 14.74404 35948 ft 490 kts 33°
2026-05-06 16:53 45.81509 14.79936 35942 ft 489 kts 33°
2026-05-06 16:53 45.87123 14.85468 35939 ft 489 kts 33°
2026-05-06 16:54 45.92736 14.91008 35939 ft 489 kts 33°
2026-05-06 16:54 45.98343 14.96563 35934 ft 489 kts 33°
2026-05-06 16:55 46.03944 15.02129 35931 ft 490 kts 33°
2026-05-06 16:55 46.09548 15.07711 35930 ft 490 kts 33°
2026-05-06 16:56 46.15143 15.13304 35926 ft 490 kts 33°
2026-05-06 16:56 46.20741 15.18915 35927 ft 490 kts 33°
2026-05-06 16:57 46.26338 15.24530 35923 ft 490 kts 33°
2026-05-06 16:57 46.31924 15.30147 35920 ft 489 kts 33°
2026-05-06 16:57 46.34715 15.32959 35804 ft 488 kts 33°
2026-05-06 16:58 46.37504 15.35771 35548 ft 489 kts 33°
2026-05-06 16:58 46.40299 15.38589 35300 ft 490 kts 33°
2026-05-06 16:58 46.43098 15.41414 35047 ft 490 kts 33°
2026-05-06 16:58 46.45890 15.44240 34790 ft 490 kts 33°
2026-05-06 16:59 46.48686 15.47078 34550 ft 491 kts 33°
2026-05-06 16:59 46.51487 15.49926 34293 ft 492 kts 33°
2026-05-06 16:59 46.54422 15.52480 34048 ft 490 kts 24°
2026-05-06 16:59 46.57571 15.54504 33799 ft 489 kts 20°
2026-05-06 17:00 46.60672 15.56388 33553 ft 490 kts 20°
2026-05-06 17:00 46.63856 15.58321 33287 ft 489 kts 20°
2026-05-06 17:00 46.67010 15.60240 32353 ft 495 kts 20°
2026-05-06 17:00 46.70197 15.62184 31453 ft 498 kts 20°
2026-05-06 17:01 46.73395 15.64142 30535 ft 499 kts 20°
2026-05-06 17:01 46.76602 15.66112 29607 ft 500 kts 20°
2026-05-06 17:01 46.79769 15.68068 29109 ft 491 kts 20°
2026-05-06 17:01 46.82904 15.70006 28456 ft 487 kts 20°
2026-05-06 17:02 46.86017 15.71928 27843 ft 483 kts 20°
2026-05-06 17:02 46.89089 15.73826 27213 ft 478 kts 20°
2026-05-06 17:02 46.92141 15.75711 26602 ft 473 kts 21°
2026-05-06 17:02 46.95162 15.77577 25993 ft 469 kts 21°
2026-05-06 17:03 46.98155 15.79421 25393 ft 465 kts 21°
2026-05-06 17:03 47.01122 15.81251 24804 ft 460 kts 21°
2026-05-06 17:03 47.04059 15.83070 24207 ft 456 kts 21°
2026-05-06 17:03 47.06970 15.84881 23638 ft 452 kts 21°
2026-05-06 17:04 47.09848 15.86676 23077 ft 448 kts 21°
2026-05-06 17:04 47.12705 15.88454 22538 ft 444 kts 21°
2026-05-06 17:04 47.15537 15.90219 22014 ft 440 kts 21°
2026-05-06 17:04 47.18342 15.91971 21509 ft 436 kts 21°
2026-05-06 17:05 47.21128 15.93708 20998 ft 433 kts 22°
2026-05-06 17:05 47.23886 15.95432 20500 ft 430 kts 21°
2026-05-06 17:05 47.26635 15.97151 19998 ft 428 kts 21°
2026-05-06 17:05 47.29369 15.98861 19495 ft 426 kts 21°
2026-05-06 17:06 47.32091 16.00564 18993 ft 423 kts 21°
2026-05-06 17:06 47.34795 16.02261 18474 ft 421 kts 22°
2026-05-06 17:06 47.37487 16.03933 17956 ft 418 kts 20°
2026-05-06 17:06 47.40171 16.05420 17788 ft 407 kts 18°
2026-05-06 17:07 47.42854 16.06763 17576 ft 405 kts 16°
2026-05-06 17:07 47.45530 16.08030 17359 ft 404 kts 16°
2026-05-06 17:07 47.48202 16.09277 17149 ft 403 kts 16°
2026-05-06 17:07 47.50869 16.10536 16923 ft 402 kts 16°
2026-05-06 17:08 47.53524 16.11816 16706 ft 401 kts 17°
2026-05-06 17:08 47.56170 16.13116 16488 ft 400 kts 17°
2026-05-06 17:08 47.58805 16.14430 16291 ft 399 kts 17°
2026-05-06 17:08 47.61461 16.15765 16072 ft 398 kts 17°
2026-05-06 17:09 47.64082 16.17085 15856 ft 397 kts 17°
2026-05-06 17:09 47.66697 16.18403 15637 ft 396 kts 17°
2026-05-06 17:09 47.69307 16.19716 15434 ft 395 kts 17°
2026-05-06 17:09 47.71907 16.21024 15210 ft 395 kts 18°
2026-05-06 17:10 47.74405 16.22723 15001 ft 396 kts 30°
2026-05-06 17:10 47.76616 16.25134 14788 ft 395 kts 43°
2026-05-06 17:10 47.78450 16.28149 14578 ft 393 kts 55°
2026-05-06 17:10 47.79886 16.31587 14364 ft 391 kts 61°
2026-05-06 17:11 47.81248 16.35077 14139 ft 390 kts 61°
2026-05-06 17:11 47.82611 16.38562 13945 ft 389 kts 61°
2026-05-06 17:11 47.83972 16.42043 13745 ft 389 kts 61°
2026-05-06 17:11 47.85325 16.45514 13530 ft 386 kts 61°
2026-05-06 17:12 47.86670 16.48965 13316 ft 386 kts 61°
2026-05-06 17:12 47.88017 16.52417 13088 ft 384 kts 61°
2026-05-06 17:12 47.89353 16.55851 12886 ft 383 kts 61°
2026-05-06 17:12 47.90683 16.59284 12663 ft 382 kts 62°
2026-05-06 17:13 47.92010 16.62713 12457 ft 381 kts 62°
2026-05-06 17:13 47.93329 16.66128 12237 ft 380 kts 62°
2026-05-06 17:13 47.94648 16.69545 12028 ft 379 kts 62°
2026-05-06 17:13 47.95966 16.72954 11820 ft 379 kts 62°
2026-05-06 17:14 47.97416 16.76210 11604 ft 378 kts 48°
2026-05-06 17:14 47.99467 16.78635 11395 ft 377 kts 26°
2026-05-06 17:14 48.01936 16.79833 11186 ft 372 kts
2026-05-06 17:14 48.04493 16.79703 10957 ft 366 kts 344°
2026-05-06 17:15 48.06871 16.78332 10741 ft 359 kts 328°
2026-05-06 17:15 48.09054 16.76650 10564 ft 347 kts 328°
2026-05-06 17:15 48.11161 16.75026 10450 ft 334 kts 328°
2026-05-06 17:15 48.13189 16.73465 10329 ft 323 kts 328°
2026-05-06 17:16 48.15155 16.71952 10151 ft 314 kts 328°
2026-05-06 17:16 48.17079 16.70465 9959 ft 309 kts 327°
2026-05-06 17:16 48.18990 16.68981 9805 ft 309 kts 327°
2026-05-06 17:16 48.20897 16.67499 9622 ft 309 kts 327°
2026-05-06 17:17 48.22868 16.66185 9464 ft 313 kts 338°
2026-05-06 17:17 48.24972 16.65289 9292 ft 314 kts 340°
2026-05-06 17:17 48.27082 16.64408 9131 ft 314 kts 340°
2026-05-06 17:17 48.29185 16.63526 8958 ft 314 kts 340°
2026-05-06 17:18 48.31291 16.62640 8790 ft 313 kts 340°
2026-05-06 17:18 48.33383 16.61759 8618 ft 312 kts 340°
2026-05-06 17:18 48.35471 16.60876 8456 ft 311 kts 340°
2026-05-06 17:18 48.37551 16.59998 8291 ft 310 kts 340°
2026-05-06 17:19 48.39627 16.59121 8129 ft 309 kts 340°
2026-05-06 17:19 48.41696 16.58246 7975 ft 307 kts 340°
2026-05-06 17:19 48.43725 16.57389 7836 ft 298 kts 340°
2026-05-06 17:19 48.45696 16.56559 7709 ft 290 kts 339°
2026-05-06 17:20 48.47618 16.55749 7523 ft 284 kts 339°
2026-05-06 17:20 48.49519 16.54943 7373 ft 283 kts 339°
2026-05-06 17:20 48.50792 16.54352 7262 ft 280 kts 332°
2026-05-06 17:20 48.52334 16.52742 7101 ft 265 kts 304°
2026-05-06 17:21 48.53202 16.50396 6938 ft 251 kts 278°
2026-05-06 17:21 48.53335 16.47868 6768 ft 238 kts 255°
2026-05-06 17:21 48.52932 16.45482 6617 ft 234 kts 248°
2026-05-06 17:21 48.52224 16.43340 6450 ft 226 kts 224°
2026-05-06 17:22 48.50936 16.42064 6315 ft 224 kts 197°
2026-05-06 17:22 48.49383 16.41970 6186 ft 229 kts 171°
2026-05-06 17:22 48.47824 16.42593 6057 ft 241 kts 170°
2026-05-06 17:22 48.46183 16.43242 5923 ft 242 kts 169°
2026-05-06 17:23 48.44588 16.43917 5753 ft 235 kts 168°
2026-05-06 17:23 48.43043 16.44581 5646 ft 226 kts 169°
2026-05-06 17:23 48.41566 16.45217 5557 ft 216 kts 169°
2026-05-06 17:23 48.40153 16.45822 5462 ft 206 kts 169°
2026-05-06 17:24 48.38788 16.46406 5372 ft 203 kts 169°
2026-05-06 17:24 48.37456 16.46975 5284 ft 195 kts 169°
2026-05-06 17:24 48.36184 16.47519 5196 ft 185 kts 169°
2026-05-06 17:24 48.34957 16.48042 5131 ft 183 kts 169°
2026-05-06 17:25 48.33736 16.48562 4950 ft 181 kts 169°
2026-05-06 17:25 48.32527 16.49080 4730 ft 180 kts 169°
2026-05-06 17:25 48.31326 16.49592 4504 ft 179 kts 169°
2026-05-06 17:25 48.30132 16.50102 4283 ft 177 kts 169°
2026-05-06 17:26 48.28963 16.50601 4053 ft 172 kts 168°
2026-05-06 17:26 48.27822 16.51087 3806 ft 168 kts 168°
2026-05-06 17:26 48.26715 16.51560 3570 ft 163 kts 168°
2026-05-06 17:26 48.25636 16.52017 3373 ft 159 kts 168°
2026-05-06 17:27 48.24591 16.52463 3158 ft 150 kts 168°
2026-05-06 17:27 48.23622 16.52876 2969 ft 140 kts 168°
2026-05-06 17:27 48.22706 16.53266 2784 ft 135 kts 168°
2026-05-06 17:27 48.21818 16.53643 2610 ft 131 kts 168°
2026-05-06 17:28 48.20941 16.54014 2447 ft 131 kts 167°
2026-05-06 17:28 48.20065 16.54386 2265 ft 130 kts 167°
2026-05-06 17:28 48.19193 16.54758 2092 ft 130 kts 166°
2026-05-06 17:28 48.18322 16.55127 1918 ft 129 kts 166°
2026-05-06 17:29 48.17455 16.55494 1739 ft 130 kts 163°
2026-05-06 17:29 48.16588 16.55861 1572 ft 129 kts 163°
2026-05-06 17:29 48.15726 16.56222 1404 ft 129 kts 163°
2026-05-06 17:29 48.14862 16.56589 1223 ft 129 kts 163°
2026-05-06 17:30 48.14001 16.56957 1065 ft 129 kts 162°
2026-05-06 17:30 48.13138 16.57325 888 ft 129 kts 163°
2026-05-06 17:30 48.12268 16.57693 722 ft 131 kts 163°
2026-05-06 17:30 48.11403 16.58057 618 ft 120 kts 164°
2026-05-06 17:31 48.10742 16.58342 616 ft 79 kts 164°
2026-05-06 17:31 48.10433 16.58465 620 ft 25 kts 171°
2026-05-06 17:31 48.10283 16.58462 609 ft 21 kts 190°
2026-05-06 17:31 48.10145 16.58408 619 ft 16 kts 198°
2026-05-06 17:32 48.10108 16.58292 613 ft 12 kts 250°
2026-05-06 17:32 48.10129 16.58181 613 ft 13 kts 333°
2026-05-06 17:32 48.10226 16.58140 618 ft 15 kts 345°
2026-05-06 17:32 48.10335 16.58094 621 ft 17 kts 343°
2026-05-06 17:33 48.10458 16.58041 609 ft 19 kts 344°
2026-05-06 17:33 48.10595 16.57984 621 ft 21 kts 344°
2026-05-06 17:33 48.10745 16.57920 617 ft 24 kts 344°
2026-05-06 17:33 48.10910 16.57851 614 ft 26 kts 344°
2026-05-06 17:34 48.11046 16.57770 615 ft 18 kts 309°
2026-05-06 17:34 48.11104 16.57597 622 ft 20 kts 296°
2026-05-06 17:34 48.11167 16.57403 623 ft 22 kts 296°
2026-05-06 17:34 48.11238 16.57187 614 ft 24 kts 296°
2026-05-06 17:35 48.11314 16.56949 619 ft 26 kts 295°
2026-05-06 17:35 48.11398 16.56692 614 ft 28 kts 296°
2026-05-06 17:35 48.11484 16.56429 612 ft 27 kts 296°
2026-05-06 17:36 48.11653 16.55916 618 ft 27 kts 296°
2026-05-06 17:36 48.11728 16.55679 614 ft 26 kts 296°
2026-05-06 17:36 48.11798 16.55472 614 ft 14 kts 298°
2026-05-06 17:36 48.11882 16.55432 609 ft 15 kts
2026-05-06 17:37 48.11970 16.55478 609 ft 9 kts 26°
2026-05-06 17:37 48.11993 16.55478 609 ft 3 kts 320°
2026-05-06 17:37 48.12006 16.55442 622 ft 5 kts 295°
2026-05-06 17:37 48.12013 16.55419 618 ft 0 kts 295°